30.04.2024;22:00;41
30.04.2024;21:00;65
30.04.2024;20:00;81
30.04.2024;19:00;100
30.04.2024;18:00;103
30.04.2024;17:00;100
30.04.2024;16:00;104
30.04.2024;15:00;104
30.04.2024;14:00;106
30.04.2024;13:00;103
30.04.2024;12:00;94
30.04.2024;11:00;79
30.04.2024;10:00;65
30.04.2024;09:00;36
30.04.2024;08:00;23
30.04.2024;07:00;26
30.04.2024;06:00;33
30.04.2024;05:00;49
30.04.2024;04:00;49
30.04.2024;03:00;51
30.04.2024;02:00;47
30.04.2024;01:00;50
30.04.2024;00:00;58
29.04.2024;23:00;54
29.04.2024;22:00;76
29.04.2024;21:00;100
29.04.2024;20:00;113
29.04.2024;19:00;117
29.04.2024;18:00;109
29.04.2024;17:00;106
29.04.2024;16:00;107
29.04.2024;15:00;105
29.04.2024;14:00;103
29.04.2024;13:00;97
29.04.2024;12:00;92
29.04.2024;11:00;88
29.04.2024;10:00;42
29.04.2024;09:00;12
29.04.2024;08:00;10
29.04.2024;07:00;11
29.04.2024;06:00;17
29.04.2024;05:00;30
29.04.2024;04:00;41
29.04.2024;03:00;50
29.04.2024;02:00;58
29.04.2024;01:00;63
29.04.2024;00:00;72
28.04.2024;23:00;70
